EW7909 Weather Reports


Display with metric or nautical units.
time (UTC)temp
F
wind
direction
speed
MPH
gust
MPH
rain 1hr
in
rain 24hr
in
rain mn
in
humidity
%
barometer
mb
20260505101522 57 257 3.0 7.0 0.01 0.34 0.20 1 1007.1
20260505100105 57 223 5.0 10.0 0.01 0.34 0.20 1 1007.0
20260505094519 56 265 2.0 6.0 0.01 0.34 0.20 1 1007.1
20260505093112 55 273 2.0 4.0 0.01 0.34 0.20 1 1007.1
20260505091530 55 107 0.0 0.0 0.00 0.33 0.20 1 1007.0
20260505090115 55 107 1.0 3.0 0.00 0.33 0.20 1 1007.0
20260505084528 55 107 0.0 0.0 0.00 0.33 0.20 1 1007.0
20260505083119 54 107 0.0 3.0 0.00 0.33 0.20 1 1007.0
20260505081538 54 107 1.0 3.0 0.00 0.33 0.20 1 1006.9
20260505080119 53 107 1.0 3.0 0.00 0.33 0.20 1 1007.0
20260505074605 53 107 2.0 4.0 0.01 0.33 0.20 1 1007.0
20260505073030 53 246 1.0 3.0 0.01 0.33 0.20 1 1007.3
20260505071610 53 246 1.0 2.0 0.02 0.33 0.20 1 1007.4
20260505070024 52 246 0.0 0.0 0.04 0.33 0.20 1 1007.6
20260505064619 52 246 0.0 0.0 0.06 0.32 0.19 1 1007.8
20260505063030 51 246 0.0 0.0 0.09 0.32 0.19 1 1008.0
20260505061621 51 246 0.0 0.0 0.12 0.31 0.18 1 1008.2
20260505060041 51 246 0.0 0.0 0.13 0.28 0.16 1 1008.2
20260505054609 51 246 0.0 0.0 0.09 0.26 0.13 1 1008.3
20260505053059 51 246 0.0 0.0 0.06 0.23 0.09 1 1008.3
20260505051542 51 246 0.0 0.0 0.03 0.20 0.06 1 1008.3
20260505041526 50 246 0.0 0.0 0.01 0.17 0.03 1 1008.4
20260505040022 50 246 0.0 0.0 0.02 0.17 0.03 1 1008.3
20260505034517 51 246 0.0 0.0 0.02 0.17 0.03 1 1008.2
20260505033013 51 246 0.0 0.0 0.01 0.16 0.02 1 1008.4
20260505031524 51 246 0.0 0.0 0.02 0.16 0.02 1 1008.4
20260505030004 50 246 0.0 0.0 0.02 0.15 0.02 1 1008.5
20260505024601 50 246 0.0 2.0 0.02 0.15 0.02 1 1008.5
20260505023116 50 246 2.0 4.0 0.02 0.15 0.02 1 1008.7
20260505021550 50 250 2.0 3.0 0.00 0.13 0.00 1 1009.0
20260505020047 50 250 0.0 0.0 0.00 0.13 0.00 1 1008.9
20260505014542 50 250 0.0 1.0 0.00 0.13 0.00 1 1008.7
20260505013037 50 250 1.0 2.0 0.00 0.13 0.00 1 1008.8
20260505011535 50 250 0.0 0.0 0.00 0.13 0.00 1 1008.8
20260505010028 50 250 0.0 0.0 0.00 0.13 0.00 1 1009.0
20260505004541 50 250 0.0 0.0 0.00 0.13 0.00 1 1009.1
20260505003018 50 250 0.0 0.0 0.00 0.13 0.00 1 1009.3
20260505001515 50 250 0.0 0.0 0.00 0.13 0.00 1 1009.7
20260505000016 50 250 0.0 0.0 0.00 0.13 0.00 1 1009.6
20260504234505 50 250 0.0 0.0 0.00 0.13 0.00 1 1009.9
20260504233001 50 250 0.0 0.0 0.00 0.13 0.00 1 1009.9
20260504231557 49 250 0.0 0.0 0.00 0.13 0.00 1 1009.9
20260504230105 50 250 0.0 0.0 0.00 0.13 0.00 1 1010.2
20260504224549 49 250 0.0 0.0 0.00 0.13 0.00 1 1010.2
20260504223045 49 250 0.0 0.0 0.00 0.13 0.00 1 1010.5
20260504221553 49 250 0.0 0.0 0.00 0.13 0.00 1 1010.4
20260504220037 50 250 0.0 0.0 0.00 0.13 0.00 1 1010.4
20260504214535 50 250 0.0 0.0 0.00 0.13 0.13 1 1010.5
20260504213031 50 250 0.0 0.0 0.00 0.13 0.13 1 1010.6
20260504211524 50 250 0.0 0.0 0.00 0.13 0.13 1 1010.6
20260504210023 51 250 0.0 0.0 0.00 0.13 0.13 1 1010.8
20260504204516 51 250 0.0 0.0 0.00 0.13 0.13 1 1010.9
20260504203013 52 250 0.0 0.0 0.00 0.13 0.13 1 1011.0
20260504201634 52 250 0.0 0.0 0.00 0.13 0.13 1 1010.8
20260504200053 53 250 0.0 0.0 0.00 0.13 0.13 1 1011.0
20260504194514 54 250 0.0 0.0 0.00 0.13 0.13 1 1011.2
20260504193101 54 250 0.0 0.0 0.00 0.13 0.13 1 1011.0
20260504191517 55 250 0.0 0.0 0.00 0.13 0.13 1 1010.9
20260504190126 55 250 0.0 0.0 0.00 0.13 0.13 1 1010.9
20260504184522 56 250 0.0 0.0 0.00 0.13 0.13 1 1011.0
20260504183110 56 250 0.0 0.0 0.00 0.13 0.13 1 1010.9
20260504181529 57 250 0.0 0.0 0.00 0.13 0.13 7 1011.0
20260504180119 57 250 0.0 0.0 0.00 0.13 0.13 22 1011.0
20260504174537 58 250 0.0 0.0 0.00 0.13 0.13 17 1011.0
20260504173123 57 250 0.0 2.0 0.00 0.13 0.13 33 1011.1
20260504171534 57 252 2.0 10.0 0.00 0.13 0.13 39 1011.1
20260504170124 57 250 5.0 8.0 0.00 0.13 0.13 24 1011.3
20260504120125 64 298 4.0 10.0 0.00 0.00 0.00 60 1010.6